Wind_Speed
10 9 8 8 6 4 3 2 2 3 3 4 5 5 5 6 7 7 7 8 8 8 9 9 9 10 9 9 9 10 9 9 10 10 10 10 10 11 11 11 10 10 9
10 9 8 8 7 5 4 2 2 2 3 3 4 5 5 5 6 7 7 8 8 8 9 9 9 9 9 9 9 10 10 10 11 10 10 10 10 10 11 11 10 10 11
10 10 9 8 7 6 5 4 2 2 2 3 4 4 4 5 6 7 7 7 7 8 8 9 9 9 9 9 9 10 10 10 10 10 11 10 11 11 11 10 10 10 11
10 10 10 9 8 6 5 5 3 2 2 2 3 4 4 4 5 6 6 6 6 7 7 8 9 8 8 8 9 9 10 11 10 10 10 11 11 11 11 10 9 10 10
11 11 10 10 9 7 6 5 5 2 1 2 2 3 3 3 3 5 6 6 6 6 6 6 6 6 8 8 8 8 8 9 10 9 9 10 10 10 11 10 9 9 10
11 12 11 10 9 8 7 6 5 4 2 1 2 2 3 3 4 4 4 4 4 4 4 5 5 6 7 7 8 7 8 8 9 8 8 8 8 9 10 9 10 10 10
12 13 12 11 11 9 7 6 6 5 3 1 1 2 2 2 2 2 3 3 3 3 4 4 4 5 5 6 7 7 7 8 7 7 6 7 8 9 8 8 9 10 10
13 13 13 13 12 11 10 10 9 8 5 3 1 1 1 1 1 2 2 2 3 3 4 3 2 3 4 5 6 6 6 7 7 7 6 5 6 6 7 6 7 9 9
14 14 14 13 13 12 11 10 9 9 7 4 3 2 1 0 0 1 2 2 3 3 2 2 2 2 2 3 4 5 5 6 7 7 7 6 5 5 5 6 6 7 8
14 14 14 13 13 12 12 11 10 9 8 7 5 4 2 2 1 1 1 1 2 2 2 2 1 1 2 2 3 4 5 6 6 7 7 7 5 4 4 5 5 6 7
14 14 14 14 13 12 10 10 10 9 10 9 6 4 4 4 3 2 1 1 1 1 1 0 0 1 1 2 3 3 4 5 6 6 6 6 6 5 5 5 5 6 7
14 14 14 14 13 12 10 10 10 9 10 9 8 7 6 4 3 2 2 2 1 1 0 0 1 1 1 2 3 3 4 4 5 5 4 4 5 5 6 6 7 7 7
13 14 14 14 13 12 11 10 10 9 9 9 8 7 6 5 5 4 3 2 1 1 1 1 2 2 2 3 2 2 3 4 4 4 4 4 5 5 6 7 7 7 7
13 13 13 14 13 12 12 11 11 11 10 10 10 9 8 7 6 5 4 3 2 2 2 2 2 2 3 3 3 2 3 3 3 3 2 4 4 4 5 6 6 6 6
13 12 13 12 12 12 12 12 12 11 10 10 10 9 9 7 7 6 6 5 5 4 4 3 3 2 3 4 3 2 3 2 2 2 1 1 2 2 2 3 4 4 5
12 13 13 13 12 11 11 11 11 11 11 10 9 9 9 8 8 7 6 6 5 5 4 4 3 3 4 4 4 3 2 2 1 2 1 1 1 2 2 3 3 4 5
13 13 13 12 12 12 11 11 11 10 10 9 9 10 9 8 8 8 7 6 6 5 5 4 3 4 4 4 4 3 3 2 2 1 1 1 2 3 3 3 4 5 6
12 12 13 13 12 13 12 12 11 10 10 9 10 10 9 9 9 8 8 7 7 6 5 4 4 4 4 4 4 3 2 2 2 2 2 2 3 4 4 5 6 6 6
12 12 12 12 12 13 12 11 11 11 11 11 11 10 10 9 9 9 8 7 7 6 5 4 4 5 5 4 4 3 2 2 2 3 3 4 4 4 5 6 7 7 7
12 12 12 11 11 11 12 11 11 11 11 11 11 10 10 9 8 8 8 8 7 6 6 5 5 5 6 5 4 4 3 3 3 4 5 5 5 6 7 7 8 9 9
11 11 11 11 11 11 11 11 11 10 10 10 10 10 9 8 8 8 8 8 8 7 7 7 7 6 6 5 5 5 5 5 5 6 7 7 7 8 8 9 9 10 11
10 10 10 10 10 10 10 10 10 10 9 9 10 9 9 9 8 8 9 8 8 8 8 7 7 7 6 6 5 6 6 7 7 8 8 8 9 9 10 10 11 11 12
9 9 9 9 10 10 10 10 11 11 11 10 10 10 10 9 9 9 9 9 9 8 8 8 8 7 7 6 6 6 7 8 9 9 9 10 10 10 11 12 12 13 13
9 9 9 9 9 9 9 9 10 10 10 10 10 10 10 9 9 9 9 9 9 9 9 9 9 8 8 8 8 8 9 10 10 10 10 11 11 12 12 12 13 13 14
9 8 9 9 9 9 9 9 9 10 10 10 10 11 10 11 10 10 10 10 10 10 10 10 10 9 9 9 9 10 10 11 11 11 12 12 13 13 14 14 13 14 14
9 9 9 9 9 9 9 9 9 9 10 11 11 11 11 11 11 11 11 11 11 11 11 12 11 10 10 11 11 11 12 12 13 13 13 13 14 15 15 15 15 15 15
Wind_Direction
13 12 12 10 5 8 22 341 304 276 251 241 240 242 235 230 234 237 238 241 239 236 240 246 250 247 250 242 240 237 236 237 244 246 241 242 244 243 243 240 241 239 240
16 16 15 17 14 12 24 11 321 291 263 247 240 237 233 231 234 240 242 245 243 242 241 246 251 247 248 243 238 238 237 236 243 245 243 243 241 244 245 245 242 241 243
17 18 17 15 13 16 25 11 345 316 279 255 244 234 226 230 236 246 247 243 241 243 245 248 251 248 247 243 235 235 238 242 243 249 253 251 252 251 250 246 242 245 245
20 21 19 14 15 13 12 6 353 322 291 257 232 226 223 228 242 241 239 238 240 242 248 251 252 246 242 237 236 239 244 239 242 249 258 263 260 253 246 243 244 249 244
24 23 21 19 22 19 12 8 3 3 290 236 224 227 228 225 238 232 234 240 247 247 252 250 247 237 236 229 226 235 239 240 242 250 262 264 257 248 243 243 244 245 242
26 25 23 22 22 22 24 24 19 17 2 239 221 217 220 230 248 241 250 251 254 254 246 242 238 236 237 230 229 241 241 247 251 258 256 257 252 241 243 243 243 242 243
31 30 27 26 27 25 21 23 20 20 14 342 207 201 217 218 243 250 250 247 247 246 241 240 236 242 249 242 246 249 251 254 255 264 265 254 243 241 242 241 240 237 237
36 35 32 33 31 32 34 33 31 34 26 28 84 128 166 158 247 250 243 243 249 246 233 232 231 239 251 248 248 249 252 256 258 269 269 262 244 239 233 228 229 231 234
39 40 39 38 35 36 38 42 41 42 43 51 80 95 124 140 301 259 260 250 245 245 241 234 228 226 253 249 246 252 262 265 265 263 262 260 248 239 231 230 233 238 239
38 39 40 41 42 42 43 47 49 53 53 58 78 75 76 64 28 26 253 234 239 242 240 234 229 269 263 250 250 255 265 273 274 260 254 254 243 231 233 236 244 248 246
37 39 41 44 46 47 47 50 53 58 57 59 69 62 49 51 49 50 60 148 174 206 222 222 206 323 258 259 268 273 281 278 269 255 252 253 244 240 240 240 240 244 247
40 41 42 45 47 50 51 51 53 58 57 53 54 51 59 59 53 58 57 84 99 63 21 342 4 9 347 312 283 281 288 276 268 261 263 261 255 252 252 247 248 248 247
42 41 43 45 47 50 52 51 51 55 56 52 52 55 59 63 61 63 63 57 71 67 108 96 41 33 9 357 332 299 302 304 288 276 260 263 267 260 262 256 256 253 251
41 41 42 43 44 47 48 48 50 52 53 50 51 53 56 59 62 70 61 53 53 59 73 68 65 49 18 16 15 360 331 314 290 298 264 253 268 268 274 273 270 262 261
41 39 38 38 41 45 45 46 48 49 52 52 50 48 47 53 57 61 59 54 53 58 61 49 32 23 10 8 5 350 334 314 288 336 340 282 280 286 287 293 290 279 271
41 39 37 34 36 43 45 47 46 49 51 52 50 48 48 52 58 58 55 49 46 51 47 33 29 12 18 14 2 341 345 338 1 43 47 2 292 281 296 298 294 283 273
41 39 35 35 38 41 45 47 46 48 51 51 51 51 48 48 50 52 49 43 37 39 35 38 27 7 7 9 3 354 8 15 36 39 19 335 316 303 295 297 295 291 283
40 38 37 40 41 41 45 48 47 45 49 50 49 48 46 45 46 46 44 39 34 33 36 33 19 4 358 359 355 1 8 8 12 338 323 329 319 312 305 297 293 288 284
39 38 41 43 41 40 43 46 45 45 44 43 43 43 44 40 37 37 35 31 30 29 28 21 13 3 0 355 351 354 359 8 347 324 317 316 309 304 300 296 294 292 288
37 38 41 41 39 40 43 45 44 43 41 38 37 38 37 36 32 27 25 24 22 20 15 12 7 359 355 348 344 339 334 333 328 315 316 315 311 301 299 296 294 292 289
35 36 37 37 36 39 39 37 36 35 33 31 31 30 27 23 22 19 17 15 12 8 8 7 2 357 352 341 334 325 323 323 319 317 312 311 308 306 305 301 298 297 290
31 34 36 35 35 34 34 34 31 29 25 22 21 17 14 12 10 11 7 4 0 358 356 357 353 348 345 342 337 332 325 314 310 309 308 304 305 305 305 302 302 297 292
26 26 27 26 25 25 25 25 25 22 18 16 14 11 8 5 2 357 356 353 351 348 345 343 343 337 334 331 327 324 323 317 315 309 303 302 302 302 304 302 299 297 293
15 15 14 13 12 14 15 14 13 13 10 7 3 1 356 353 350 348 345 344 340 336 334 335 333 332 333 330 326 322 319 314 310 311 308 304 304 303 301 302 300 297 295
4 4 4 3 1 2 5 5 3 1 359 358 355 354 352 348 345 344 341 339 334 330 328 327 324 321 323 325 323 320 318 315 311 307 307 304 303 304 305 303 301 298 295
356 354 354 353 351 350 352 352 351 349 348 348 346 345 345 343 341 339 338 335 332 326 323 321 317 313 313 315 316 314 311 312 312 308 307 305 304 305 304 303 299 298 298
Height
5883 5882 5880 5879 5878 5877 5875 5875 5874 5875 5875 5875 5876 5876 5876 5877 5877 5877 5877 5877 5877 5877 5877 5878 5877 5877 5877 5877 5878 5878 5879 5879 5879 5879 5879 5880 5880 5880 5880 5880 5880 5880 5880
5884 5882 5880 5879 5877 5876 5874 5874 5874 5874 5874 5874 5875 5875 5875 5876 5876 5876 5876 5876 5876 5876 5876 5876 5876 5876 5876 5876 5877 5877 5877 5878 5878 5878 5878 5878 5878 5878 5878 5878 5878 5878 5878
5884 5882 5880 5879 5877 5876 5875 5874 5874 5874 5873 5873 5874 5874 5874 5875 5875 5875 5875 5875 5875 5875 5875 5875 5875 5875 5875 5875 5875 5876 5876 5876 5876 5876 5876 5876 5875 5875 5876 5876 5876 5876 5875
5884 5882 5881 5879 5877 5876 5875 5874 5873 5873 5873 5872 5873 5873 5873 5874 5874 5874 5874 5874 5874 5874 5874 5874 5873 5873 5873 5873 5874 5874 5874 5874 5874 5874 5874 5873 5872 5872 5873 5873 5874 5873 5872
5885 5883 5881 5879 5877 5876 5875 5874 5873 5872 5872 5871 5871 5872 5872 5873 5873 5873 5873 5873 5873 5873 5873 5873 5872 5872 5872 5873 5873 5873 5872 5873 5873 5872 5872 5870 5868 5868 5870 5871 5872 5872 5872
5886 5884 5881 5880 5878 5876 5875 5873 5872 5871 5871 5870 5871 5871 5872 5872 5872 5872 5872 5872 5872 5872 5872 5872 5872 5872 5872 5872 5872 5872 5872 5872 5872 5871 5871 5869 5867 5867 5869 5870 5871 5871 5872
5887 5885 5882 5880 5879 5877 5875 5873 5872 5871 5869 5869 5870 5871 5871 5871 5871 5871 5871 5871 5871 5871 5871 5871 5871 5871 5871 5871 5871 5871 5871 5871 5871 5870 5870 5869 5868 5868 5869 5870 5870 5870 5871
5888 5886 5884 5881 5879 5878 5876 5874 5872 5870 5869 5868 5869 5870 5871 5871 5871 5870 5870 5870 5870 5870 5870 5870 5870 5870 5870 5871 5871 5870 5870 5870 5870 5869 5869 5869 5868 5868 5868 5868 5869 5869 5870
5889 5887 5885 5883 5880 5879 5877 5875 5873 5871 5869 5868 5869 5870 5870 5870 5870 5869 5869 5869 5868 5869 5870 5870 5870 5870 5870 5870 5869 5869 5869 5869 5868 5868 5868 5867 5868 5868 5867 5867 5868 5868 5868
5891 5889 5886 5884 5881 5880 5878 5876 5875 5872 5870 5869 5869 5870 5870 5870 5869 5869 5868 5867 5867 5868 5869 5870 5870 5870 5869 5869 5869 5868 5868 5868 5867 5867 5867 5867 5866 5867 5866 5866 5866 5866 5867
5892 5890 5887 5885 5883 5881 5880 5878 5877 5875 5874 5872 5871 5871 5871 5870 5869 5869 5868 5868 5867 5868 5869 5870 5870 5869 5869 5869 5868 5867 5867 5866 5865 5865 5865 5865 5865 5865 5865 5865 5865 5865 5865
5893 5891 5889 5887 5885 5883 5882 5880 5879 5878 5876 5875 5874 5873 5872 5871 5870 5869 5869 5868 5868 5869 5869 5870 5870 5869 5869 5868 5868 5867 5866 5865 5864 5864 5864 5863 5863 5864 5864 5864 5863 5863 5863
5894 5893 5891 5888 5887 5885 5883 5882 5881 5879 5878 5877 5876 5875 5874 5872 5871 5870 5870 5870 5870 5870 5870 5869 5869 5869 5869 5868 5868 5867 5866 5864 5864 5863 5863 5863 5862 5863 5863 5862 5862 5861 5861
5896 5894 5893 5891 5889 5887 5885 5884 5882 5881 5880 5879 5877 5876 5875 5874 5873 5872 5871 5871 5870 5870 5870 5870 5869 5869 5868 5868 5867 5866 5865 5864 5863 5862 5862 5862 5862 5861 5861 5861 5860 5860 5860
5898 5896 5894 5892 5891 5889 5887 5886 5884 5883 5882 5881 5879 5878 5877 5875 5874 5873 5873 5872 5872 5871 5870 5870 5869 5869 5868 5867 5867 5866 5864 5863 5862 5861 5861 5861 5861 5860 5860 5859 5859 5858 5858
5899 5897 5895 5893 5892 5890 5889 5887 5886 5884 5883 5882 5881 5879 5878 5876 5876 5875 5874 5873 5872 5871 5871 5870 5870 5869 5868 5867 5866 5865 5864 5863 5862 5861 5861 5860 5860 5860 5859 5858 5858 5857 5856
5900 5898 5897 5895 5893 5891 5890 5888 5887 5886 5884 5883 5882 5880 5879 5878 5877 5876 5875 5874 5873 5872 5871 5870 5870 5869 5868 5867 5866 5865 5864 5863 5862 5862 5861 5860 5860 5859 5858 5857 5856 5856 5855
5901 5899 5897 5895 5894 5892 5891 5890 5888 5887 5885 5884 5883 5881 5880 5879 5878 5877 5876 5875 5873 5872 5871 5870 5870 5869 5867 5867 5866 5865 5864 5863 5863 5862 5861 5860 5859 5858 5857 5856 5855 5854 5853
5902 5900 5898 5896 5895 5894 5892 5891 5889 5888 5887 5885 5884 5882 5881 5880 5878 5878 5877 5875 5874 5873 5872 5871 5870 5868 5867 5866 5865 5865 5864 5863 5862 5861 5860 5859 5857 5857 5856 5855 5853 5852 5851
5903 5901 5899 5898 5897 5895 5893 5892 5891 5889 5888 5886 5885 5883 5882 5881 5879 5878 5877 5875 5874 5873 5872 5871 5869 5868 5867 5866 5865 5864 5863 5862 5861 5860 5859 5857 5856 5855 5854 5853 5852 5850 5849
5904 5902 5900 5899 5898 5896 5895 5893 5892 5890 5889 5887 5885 5884 5883 5881 5880 5878 5877 5875 5874 5873 5871 5870 5869 5868 5866 5865 5864 5863 5862 5861 5860 5859 5857 5856 5854 5853 5852 5851 5849 5848 5847
5905 5903 5902 5900 5899 5897 5895 5894 5892 5891 5889 5888 5886 5884 5883 5881 5880 5878 5877 5875 5874 5872 5871 5870 5868 5867 5866 5864 5863 5862 5860 5860 5858 5856 5855 5853 5852 5851 5850 5848 5847 5845 5843
5905 5904 5902 5901 5899 5898 5896 5894 5893 5891 5889 5888 5886 5884 5883 5881 5879 5878 5876 5875 5873 5872 5870 5869 5867 5866 5864 5863 5861 5860 5859 5857 5855 5854 5852 5851 5849 5848 5847 5846 5844 5842 5840
5905 5904 5902 5901 5899 5898 5896 5895 5893 5891 5890 5888 5886 5884 5882 5880 5879 5877 5875 5874 5872 5871 5869 5867 5866 5864 5863 5861 5859 5858 5857 5855 5854 5852 5851 5849 5847 5845 5844 5843 5841 5839 5837
5905 5903 5902 5900 5899 5897 5896 5894 5892 5891 5889 5888 5885 5883 5881 5880 5878 5876 5874 5872 5870 5869 5867 5865 5864 5862 5860 5859 5857 5856 5854 5853 5851 5850 5848 5846 5844 5842 5840 5839 5837 5835 5833
5904 5902 5901 5899 5898 5897 5895 5893 5891 5890 5888 5887 5885 5883 5881 5879 5876 5874 5872 5870 5869 5867 5865 5863 5861 5859 5858 5856 5855 5853 5851 5850 5848 5847 5845 5843 5841 5839 5837 5835 5833 5831 5829